TimePDT,TemperatureF,Dew PointF,Humidity,Sea Level PressureIn,VisibilityMPH,Wind Direction,Wind SpeedMPH,Gust SpeedMPH,PrecipitationIn,Events,Conditions,WindDirDegrees,DateUTC
12:56 AM,73.0,51.1,46,29.72,10.0,WSW,24.2,-,N/A,,Clear,250,2013-09-22 07:56:00
1:56 AM,72.0,52.0,49,29.72,10.0,West,26.5,-,N/A,,Clear,260,2013-09-22 08:56:00
2:29 AM,73.0,50.0,44,29.66,5.0,West,23.0,36.8,N/A,,Haze,270,2013-09-22 09:29:00
2:40 AM,72.0,50.0,46,29.65,5.0,West,29.9,38.0,N/A,,Haze,270,2013-09-22 09:40:00
2:53 AM,71.6,48.2,43,29.64,9.0,West,27.6,40.3,N/A,,Scattered Clouds,270,2013-09-22 09:53:00
2:56 AM,72.0,48.9,44,29.68,9.0,West,25.3,40.3,N/A,,Scattered Clouds,280,2013-09-22 09:56:00
3:56 AM,71.1,50.0,47,29.72,10.0,WSW,27.6,35.7,N/A,,Clear,250,2013-09-22 10:56:00
4:56 AM,70.0,48.9,47,29.73,10.0,WSW,18.4,-,N/A,,Clear,240,2013-09-22 11:56:00
5:56 AM,69.1,48.9,49,29.75,10.0,WSW,16.1,-,N/A,,Clear,250,2013-09-22 12:56:00
6:56 AM,69.1,48.0,47,29.75,10.0,West,23.0,-,N/A,,Clear,280,2013-09-22 13:56:00
7:56 AM,73.0,46.9,39,29.78,10.0,WNW,13.8,-,N/A,,Clear,300,2013-09-22 14:56:00
8:56 AM,77.0,46.9,34,29.79,10.0,West,19.6,-,N/A,,Clear,280,2013-09-22 15:56:00
9:56 AM,79.0,43.0,28,29.81,10.0,NW,10.4,-,N/A,,Clear,310,2013-09-22 16:56:00
10:56 AM,82.0,36.0,19,29.79,10.0,West,12.7,-,N/A,,Clear,280,2013-09-22 17:56:00
11:56 AM,84.9,35.1,17,29.78,10.0,WNW,15.0,-,N/A,,Clear,300,2013-09-22 18:56:00
12:56 PM,86.0,36.0,17,29.76,10.0,NNW,8.1,17.3,N/A,,Clear,340,2013-09-22 19:56:00
1:56 PM,88.0,32.0,14,29.74,10.0,North,11.5,-,N/A,,Clear,360,2013-09-22 20:56:00
2:56 PM,88.0,30.9,13,29.73,10.0,Variable,5.8,-,N/A,,Clear,0,2013-09-22 21:56:00
3:56 PM,89.1,30.0,12,29.72,10.0,North,6.9,-,N/A,,Clear,10,2013-09-22 22:56:00
4:56 PM,90.0,28.0,11,29.71,10.0,North,4.6,-,N/A,,Clear,350,2013-09-22 23:56:00
5:56 PM,89.1,30.0,12,29.71,10.0,NNW,5.8,-,N/A,,Clear,330,2013-09-23 00:56:00
6:56 PM,80.1,32.0,17,29.72,10.0,East,4.6,-,N/A,,Clear,80,2013-09-23 01:56:00
7:56 PM,77.0,37.0,24,29.73,10.0,East,4.6,-,N/A,,Clear,80,2013-09-23 02:56:00
8:56 PM,77.0,35.1,22,29.76,10.0,West,6.9,-,N/A,,Clear,260,2013-09-23 03:56:00
9:56 PM,75.0,48.0,38,29.78,10.0,SW,6.9,-,N/A,,Clear,230,2013-09-23 04:56:00
10:56 PM,72.0,48.0,43,29.79,10.0,West,6.9,-,N/A,,Clear,270,2013-09-23 05:56:00
11:56 PM,72.0,48.0,43,29.79,10.0,SSW,4.6,-,N/A,,Clear,210,2013-09-23 06:56:00